Terminal Aerodrome Forecast
Issued by NWS

Home | Current Version | Previous Version | Text Only | Print | Product List | Glossary On
Versions: 1 2 3 4 5 6 7 8 9 10 11 12 13 14 15 16 17 18 19 20 21 22 23 24
000
FTUS44 KSJT 021700
TAFSOA
TAF
KSOA 021720Z 0218/0318 17012G18KT P6SM BKN250
     FM031000 17010G16KT P6SM OVC015
     FM031600 18012G18KT P6SM BKN050=

USA.gov is the U.S. government's official web portal to all federal, state and local government web resources and services.